Content
SEND FEEDBACK

Daily
Averages
Monthly
Summary
United States of America

NORDEN, CALIFORNIA


Home > North America > United States > California
Elevation: 6890 feet     Latitude: 39 19N     Longitude: 120 22W

WEATHER
 
SELECT A DAY
Number of Records: 288,916;   Date Range: 1/1/95 - 11/19/14
 
SHARE

PRINT THIS DATA

[ ← Previous Day ]
WEATHER ALMANAC - OCTOBER 29, 2013
[ Next Day → ]
[ °C ]   °F
Weather ElementAverageHighLow
Temperature32.3 °F35.6 °F (10:50 am)28.4 °F (11:15 pm)
Dewpoint29.7 °F32 °F (5:45 pm)28.4 °F (12:35 am)
Humidity90.4 %100 % (6:55 pm)75 % (10:50 am)
Barometer29.96 in30.08 in (10:35 pm)29.82 in (12:35 am)
Wind Speed2.2 mph6.9 mph (10:50 am)
Weather ElementAverage
Visibility8.2 mi
Wind DirectionESE (97.9 °)

Weather ElementTotal
Precipitation---
Heating Degree Days33 (Base 65)
Averaged from 43 records on October 29, 2013
WEATHER CONDITIONS BREAKOUT
WIND DIRECTION BREAKOUT
WEATHER BY HOUR - OCTOBER 29, 2013
[ °C ]   °F
Local TimeTemperatureDewpointHumidityBarometerVisibilityWind DirectionWind SpeedGust SpeedPrecipitationEventsConditions
12:35 AM32.0 °F28.4 °F87 %29.82 in10.0 miCalmOvercast
12:55 AM32.0 °F28.4 °F87 %29.82 in10.0 miEast (90°)3.5 mphOvercast
1:15 AM32.0 °F28.4 °F87 %29.83 in10.0 miEast (100°)4.6 mphOvercast
1:35 AM32.0 °F28.4 °F87 %29.84 in10.0 miCalmOvercast
1:55 AM32.0 °F30.2 °F93 %29.84 in10.0 miCalmOvercast
2:15 AM32.0 °F30.2 °F93 %29.84 in10.0 miWNW (290°)4.6 mphOvercast
2:55 AM33.8 °F28.4 °F81 %29.84 in10.0 miWNW (300°)5.8 mphOvercast
3:55 AM32.0 °F28.4 °F87 %29.85 in10.0 miENE (70°)4.6 mphOvercast
4:55 AM32.0 °F28.4 °F87 %29.86 in10.0 miENE (70°)4.6 mphOvercast
5:35 AM32.0 °F28.4 °F87 %29.86 in10.0 miNNE (30°)3.5 mphOvercast
5:55 AM32.0 °F28.4 °F87 %29.87 in10.0 miCalmOvercast
6:35 AM32.0 °F28.4 °F87 %29.87 in10.0 miNE (40°)4.6 mphOvercast
6:50 AM32.0 °F30.2 °F93 %29.87 in10.0 miCalmOvercast
7:55 AM32.0 °F30.2 °F93 %29.91 in9.0 miCalmOvercast
8:45 AM32.0 °F30.2 °F93 %29.91 in6.0 miSSE (160°)4.6 mphSnowLight Snow
9:50 AM33.8 °F28.4 °F81 %29.94 in8.0 miWNW (290°)3.5 mphOvercast
10:50 AM35.6 °F28.4 °F75 %29.95 in6.0 miWest (280°)6.9 mphSnowLight Snow
11:50 AM35.6 °F30.2 °F81 %29.96 in10.0 miWest (260°)3.5 mphOvercast
12:45 PM35.6 °F28.4 °F75 %29.96 in10.0 miWest (270°)5.8 mphOvercast
1:45 PM35.6 °F30.2 °F81 %29.96 in10.0 miWest (280°)5.8 mphOvercast
2:45 PM35.6 °F30.2 °F81 %29.96 in10.0 miWNW (290°)6.9 mphOvercast
3:55 PM35.6 °F30.2 °F81 %29.98 in9.0 miWest (280°)3.5 mphOvercast
4:45 PM35.6 °F30.2 °F81 %29.99 in9.0 miWest (260°)4.6 mphOvercast
5:45 PM33.8 °F32.0 °F93 %30.00 in9.0 miCalmOvercast
5:55 PM33.8 °F32.0 °F93 %30.00 in10.0 miCalmOvercast
6:15 PM33.8 °F32.0 °F93 %30.01 in10.0 miENE (60°)3.5 mphOvercast
6:35 PM33.8 °F32.0 °F93 %30.01 in7.0 miNNW (330°)3.5 mphOvercast
6:55 PM32.0 °F32.0 °F100 %30.02 in10.0 miCalmMostly Cloudy
7:15 PM32.0 °F32.0 °F100 %30.02 in10.0 miCalmMostly Cloudy
7:35 PM32.0 °F32.0 °F100 %30.03 in10.0 miCalmOvercast
7:55 PM32.0 °F32.0 °F100 %30.04 in10.0 miCalmOvercast
8:15 PM32.0 °F30.2 °F93 %30.03 in7.0 miCalmOvercast
8:35 PM30.2 °F28.4 °F93 %30.03 in0.5 miCalmFogLight Freezing Fog
8:55 PM30.2 °F28.4 °F93 %30.04 in0.5 miNNW (340°)3.5 mphFogLight Freezing Fog
9:15 PM30.2 °F30.2 °F100 %30.06 in0.2 miCalmFogLight Freezing Fog
9:35 PM30.2 °F30.2 °F100 %30.06 in0.2 miESE (120°)3.5 mphFogLight Freezing Fog
9:55 PM30.2 °F30.2 °F100 %30.07 in5.0 miCalmOvercast
10:15 PM30.2 °F28.4 °F93 %30.07 in10.0 miCalmOvercast
10:35 PM30.2 °F28.4 °F93 %30.08 in10.0 miCalmOvercast
10:55 PM30.2 °F28.4 °F93 %30.08 in10.0 miCalmOvercast
11:15 PM28.4 °F28.4 °F100 %30.07 in1.0 miCalmOvercast
11:35 PM28.4 °F28.4 °F100 %30.07 in7.0 miCalmOvercast
11:55 PM30.2 °F28.4 °F93 %30.07 in10.0 miCalmOvercast
Hourly data recorded from KTRK, located miles away from Norden, California







STORIES FROM OUR PARTNERS